Regional Weather Roundup
Issued by NWS

Home | Current Version | Previous Version | Text Only | Print | Product List | Glossary On
Versions: 1 2 3 4 5 6 7 8 9 10 11 12 13 14 15 16 17 18 19 20 21 22 23 24 25 26 27 28 29 30 31 32 33 34 35 36 37 38 39 40 41 42 43 44 45 46 47 48 49 50
741
ASUS43 KMPX 191310
RWRMN
WEATHER ROUNDUP FOR MINNESOTA
NATIONAL WEATHER SERVICE TWIN CITIES/CHANHASSEN MN
800 AM CDT SAT AUG 19 2017


NOTE: "FAIR" INDICATES FEW OR NO CLOUDS BELOW 12,000 FEET WITH NO
SIGNIFICANT WEATHER AND/OR OBSTRUCTIONS TO VISIBILITY. N/A MEANS
CURRENT SKY AND/OR WEATHER CONDITIONS ARE NOT AVAILABLE.

MNZ060>063-068>070-191400-
   Twin Cities Metro

CITY           SKY/WX    TMP DP  RH WIND       PRES   REMARKS
TWIN CITIES    MOSUNNY   62  59  90 S6        29.95R FOG
ST PAUL        SUNNY     61  61 100 CALM      29.96R FOG
CRYSTAL        SUNNY     61  58  90 CALM      29.93S FOG
BLAINE         SUNNY     63  63 100 CALM      29.94S FOG
LAKEVILLE      MOSUNNY   57  57 100 CALM      29.96R FOG
EDEN PRAIRIE   FOG       59  58  96 SW7       29.95R VSB<1/4
SOUTH ST PAUL  SUNNY     60  60  98 CALM      29.95S
LAKE ELMO      FOG       59  59 100 S3        29.97R VSB 1/2
$$
MNZ001>005-007-008-013>017-022>024-027-028-191400-
   Northwest Minnesota

CITY           SKY/WX    TMP DP  RH WIND       PRES   REMARKS
BEMIDJI        SUNNY     60  58  92 SW3       29.90S
HALLOCK        SUNNY     57  55  94 S6        29.82S
ROSEAU         SUNNY     59  54  82 SW3       29.84S
WARROAD        SUNNY     59  55  88 SW6       29.84S
THIEF RVR FALL SUNNY     58  56  93 S5        29.88R
CROOKSTON      SUNNY     57  57 100 S5        29.87R
FOSSTON        SUNNY     59  57  94 S6        29.90S FOG
DETROIT LAKES  SUNNY     61  59  94 S3        29.93S
MOORHEAD       SUNNY     57  55  94 SE5       29.90S
PARK RAPIDS    MOSUNNY   57  57 100 CALM      29.92R
MAHNOMEN       FAIR      60  58  95 S7        29.90S
$$
MNZ006-009>011-018-025>026-191400-
   North Central Minnesota

CITY           SKY/WX    TMP DP  RH WIND       PRES   REMARKS
BAUDETTE       SUNNY     57  56  96 S3        29.84S
FLAG ISLAND    SUNNY     63  55  77 CALM      29.82R
INTL FALLS     SUNNY     58  56  93 VRB3      29.86S
WASKISH        SUNNY     63  61  94 SW3       29.87S
BIG FORK       SUNNY     57  55  94 CALM      29.89S
LONGVILLE      MOSUNNY   57  57 100 CALM      29.91S
GRAND RAPIDS   SUNNY     63  60  90 W5        29.92S
CRANE LAKE     SUNNY     48  48 100 CALM      29.89S FOG
ORR            PTSUNNY   54  52  94 CALM      29.86S FOG
COOK           SUNNY     57  55  94 CALM      29.89S
WALKER         FAIR      60  58  94 CALM      29.91R
$$
MNZ012-019>021-037-191400-
   Northeast Minnesota

CITY           SKY/WX    TMP DP  RH WIND       PRES   REMARKS
DULUTH         SUNNY     62  60  93 NW7       29.90R
ELY            SUNNY     55  55 100 CALM      29.89R
HIBBING        SUNNY     53  53 100 CALM      29.90R
EVELETH        FOG       55  53  92 CALM      29.91S VSB<1/4
DULUTH HARBOR  SUNNY     61  57  88 S9        29.89R
TWO HARBORS    SUNNY     63  57  82 NW6       29.87R
SILVER BAY     SUNNY     61  57  88 NW3       29.86R
GRAND MARAIS     N/A     67  60  78 CALM      29.82R
G MARAIS ARPRT SUNNY     59  54  82 CALM      29.88R
$$
MNZ029>031-032-039>041-046>048-054>057-064-191400-
   West Central Minnesota

CITY           SKY/WX    TMP DP  RH WIND       PRES   REMARKS
FERGUS FALLS   SUNNY     59  59 100 SE5       29.93S
WHEATON        SUNNY     59  55  88 S3        29.95S
MORRIS         SUNNY     57  55  94 CALM      29.94R
ALEXANDRIA     SUNNY     61  60  97 SW3       29.96R
ELBOW LAKE     FAIR      57  57 100 CALM      29.95R FOG
WADENA         SUNNY     59  59 100 SW3       29.93R
GLENWOOD       SUNNY     61  61 100 CALM      29.96R FOG
APPLETON       SUNNY     57  55  94 CALM      29.95R
BENSON         FOG       55  54  94 CALM      29.97R VSB 1/4
ORTONVILLE     SUNNY     59  57  94 MISG      29.94R
MADISON        SUNNY     59  59 100 CALM      29.95S
WILLMAR        FOG       55  55 100 CALM      29.97R VSB 1/2
$$
MNZ033>034-036-042>043-049>051-058-059-191400-
   Central Minnesota

CITY           SKY/WX    TMP DP  RH WIND       PRES   REMARKS
ST CLOUD       MOSUNNY   57  57 100 CALM      29.95R FOG
SAUK CENTRE    FAIR      56  56 100 CALM      29.96R
PAYNESVILLE    SUNNY     56  56 100 CALM      29.96R FOG
AITKIN         SUNNY     59  57  94 SW3       29.91S
PINE RIVER     PTSUNNY   52  52 100 CALM      29.95S FOG
BRAINERD       SUNNY     58  57  97 CALM      29.93R FOG
STAPLES        SUNNY     57  55  94 CALM      29.93S
LONG PRAIRIE   FAIR      55  55 100 CALM      29.95R FOG
LITTLE FALLS     N/A    N/A N/A N/A CALM        N/A
LITCHFIELD     SUNNY     61  61 100 CALM      29.96R
BUFFALO        MOSUNNY   59  58  95 S3        29.96R FOG
MAPLE LAKE     PTSUNNY   59  59  99 CALM      29.96R FOG
HUTCHINSON     FOG       57  57 100 CALM      29.97S VSB 1/4
$$
MNZ037-044-045-052-053-191400-
   East Central Minnesota

CITY           SKY/WX    TMP DP  RH WIND       PRES   REMARKS
PRINCETON      SUNNY     59  57  94 CALM      29.94S FOG
MORA           SUNNY     55  55 100 CALM      29.95R
CAMBRIDGE      SUNNY     61  61 100 CALM      29.94S FOG
RUSH CITY      SUNNY     58  57  97 CALM      29.94R FOG
MOOSE LAKE     FOG       54  52  94 CALM      29.91R VSB 1
HINCKLEY       FAIR      55  55 100 CALM      29.93R
CLOQUET        SUNNY     61  57  88 W6        29.91S
MCGREGOR       CLOUDY    55  55 100 CALM      29.92S VSB<1/4
$$
MNZ071>073-080-081-089-090-097-098-191400-
   Southwest Minnesota

CITY           SKY/WX    TMP DP  RH WIND       PRES   REMARKS
MONTEVIDEO     SUNNY     61  61 100 CALM      29.95S
GRANITE FALLS  FOG       58  58 100 CALM      29.98R VSB 1/4
CANBY          SUNNY     61  57  88 CALM      29.97S
MARSHALL       SUNNY     60  58  92 S3        29.97R
REDWOOD FALLS  FOG       56  55  97 S7        29.96R VSB 1/4
OLIVIA         FOG       54  54 100 CALM      29.96S VSB<1/4
PIPESTONE      FOG       55  55 100 CALM      29.98S VSB 1/4
WINDOM         FOG       55  54  94 CALM      29.98S VSB<1/4
WORTHINGTON    PTSUNNY   57  56  96 CALM      29.99S
JACKSON        FOG       54  54 100 CALM      29.99S VSB<1/4
TRACY          FOG       59  59 100 SW5       29.98R VSB 3/4
SLAYTON        FOG       56  52  89 SW5       30.00R VSB 1/4
$$
MNZ065>067-074>077-082>085-091>093-191400-
   South Central Minnesota

CITY           SKY/WX    TMP DP  RH WIND       PRES   REMARKS
MANKATO        FOG       59  58  96 SW5       29.98R VSB 1/4
NEW ULM        FOG       55  55 100 S3        29.98R VSB<1/4
ST JAMES       FOG       55  55 100 SW5       29.99S VSB<1/4
FAIRMONT       FOG       57  57 100 SE3       29.98S VSB 1/4
GLENCOE        FOG       56  56 100 S6        29.96S VSB<1/4
FARIBAULT      SUNNY     57  57 100 S3        29.97S
OWATONNA       SUNNY     57  57 100 CALM      29.98S
WASECA         SUNNY     55  55 100 CALM      29.99S FOG
ALBERT LEA     SUNNY     63  63 100 CALM      29.98S FOG
$$
MNZ078>079-086>088-094>096-191400-
   Southeast Minnesota

CITY           SKY/WX    TMP DP  RH WIND       PRES   REMARKS
ROCHESTER      SUNNY     60  59  96 CALM      29.99R
RED WING       FOG       57  55  94 CALM      29.95S VSB<1/4
STANTON        SUNNY     56  55  96 CALM      29.96R FOG
DODGE CENTER   SUNNY     59  55  88 SW5       29.98R
WINONA         FOG       55  55 100 CALM      29.97R VSB 1
AUSTIN         SUNNY     57  55  94 CALM      29.98R
PRESTON        SUNNY     58  55  92 CALM      29.99R
$$
ABBREVIATIONS USED IN REMARKS
   TC - TEMPERATURES IN CELSIUS
  WCI - WIND CHILL INDEX
   HX - HEAT INDEX
  VSB - VISIBILITY
$$




USA.gov is the U.S. government's official web portal to all federal, state and local government web resources and services.